Location: Ch�tillon
(48.8024°N, 2.2935°E)
Time: 15:47:02
(UTC+00:00)

Cosmos 1697 Rocket - Pass Details

Date: 31 May 2022
Orbit: 833 x 843 km, 71.0° (Epoch: 29 June)

Event Time Altitude Azimuth Distance (km) Brightness Sun altitude
Rises 02:41:12 0° 335° (NNW) 3,407 6.2 -9.5°
Reaches altitude 10° 02:44:15 10° 351° (N) 2,467 5.7 -9.2°
Maximum altitude 02:48:35 22° 41° (NE) 1,764 5.6 -8.7°
Drops below altitude 10° 02:52:53 10° 91° (E) 2,453 5.7 -8.2°
Sets 02:55:53 0° 107° (ESE) 3,382 6.2 -7.9°
